SCP
1 1 1 1 1 1 0 0 0 0 0 0 0 0 0 0 0 0 0 0 0 0 0 0 0 0 0 0 0 0 0 0 0 0 0 0 0 0 0 0 0 0 0
1 1 1 0 0 0 0 0 0 0 0 0 0 0 0 0 0 0 0 0 0 0 0 0 0 0 0 0 0 0 0 0 0 0 0 0 0 0 0 0 0 0 0
1 1 0 0 0 0 0 0 0 0 0 0 0 0 0 0 0 0 0 0 0 0 0 0 0 0 0 0 0 0 0 0 0 0 0 0 0 0 0 0 0 0 0
0 0 0 0 0 0 0 0 0 0 0 0 0 0 0 0 0 0 0 0 0 0 0 0 0 0 0 0 0 0 0 0 0 0 0 0 0 0 0 0 0 0 0
0 0 0 0 0 0 0 0 0 0 0 0 0 0 0 0 0 0 0 0 0 0 0 0 0 0 0 0 0 0 0 0 0 0 0 0 0 0 0 0 0 0 0
0 0 0 0 0 0 0 0 0 0 0 0 0 0 0 0 0 0 0 0 0 0 0 0 0 0 0 0 0 0 0 0 0 0 0 0 0 0 0 0 0 0 0
0 0 0 0 0 0 0 0 0 0 0 0 0 0 0 0 0 0 0 0 0 0 0 0 0 0 0 0 0 0 0 0 0 0 0 0 0 0 0 0 0 0 0
0 0 0 0 0 0 0 0 0 0 0 0 0 0 0 0 0 0 0 0 0 0 0 0 0 0 0 0 0 0 0 0 0 0 0 0 0 0 0 0 0 0 0
0 0 0 0 0 0 0 0 0 0 0 0 0 0 0 0 0 0 0 0 0 0 0 0 0 0 0 0 0 0 0 0 0 0 0 0 0 0 0 0 0 0 0
0 0 0 0 0 0 0 0 0 0 0 0 0 0 0 0 0 0 0 0 0 0 0 0 0 0 0 0 0 0 0 0 0 0 0 0 0 0 0 0 0 0 0
0 0 0 0 0 0 0 0 0 0 0 0 0 0 0 0 0 0 0 0 0 0 0 0 0 0 0 0 0 0 0 0 0 0 0 0 0 0 0 0 0 0 0
0 0 0 0 0 0 0 0 0 0 0 0 0 0 0 0 0 0 0 0 0 0 0 0 0 0 0 0 0 0 0 0 0 0 0 0 0 0 0 0 0 0 0
0 0 0 0 0 0 0 0 0 0 0 0 0 0 0 0 0 0 0 0 0 0 0 0 0 0 0 0 0 0 0 0 0 0 0 0 0 0 0 0 0 0 0
0 0 0 0 0 0 0 0 0 0 0 0 0 0 0 0 0 0 0 0 0 0 0 0 0 0 0 0 0 0 0 0 0 0 0 0 0 0 0 0 0 0 0
0 0 0 0 0 0 0 0 0 0 0 0 0 0 0 0 0 0 0 0 0 0 0 0 0 0 0 0 0 0 0 0 0 0 0 0 0 0 0 0 0 0 0
0 0 0 0 0 0 0 0 0 0 0 0 0 0 0 0 0 0 0 0 0 0 0 0 0 0 0 0 0 0 0 0 0 0 0 0 0 0 0 0 0 0 0
0 0 0 0 0 0 0 0 0 0 0 0 0 0 0 0 0 0 0 0 0 0 0 0 0 0 0 0 0 0 0 0 0 0 0 0 0 0 0 0 0 0 0
0 0 0 0 0 0 0 0 0 0 0 0 0 0 0 0 0 0 0 0 0 0 0 0 0 0 0 0 0 0 0 0 0 0 0 0 0 0 0 0 0 0 0
0 0 0 0 0 0 0 0 0 0 0 0 0 0 0 0 0 0 0 0 0 0 0 0 0 0 0 0 0 0 0 0 0 0 0 0 0 0 0 0 0 0 0
0 0 0 0 0 0 0 0 0 0 0 0 0 0 0 0 0 0 0 0 0 0 0 0 0 0 0 0 0 0 0 0 0 0 0 0 0 0 0 0 0 0 0
0 0 0 0 0 0 0 0 0 0 0 0 0 0 0 0 0 0 0 0 0 0 0 0 0 0 0 0 0 0 0 0 0 0 0 0 0 0 0 0 0 0 0
0 0 0 0 0 0 0 0 0 0 0 0 0 0 0 0 0 0 0 0 0 0 0 0 0 0 0 0 0 0 0 0 0 0 0 0 0 0 0 0 0 0 0
0 0 0 0 0 0 0 0 0 0 0 0 0 0 0 0 0 0 0 0 0 0 0 0 0 0 0 0 0 0 0 0 0 0 0 0 0 0 0 0 0 0 0
0 0 0 0 0 0 0 0 0 0 0 0 0 0 0 0 0 0 0 0 0 0 0 0 0 0 0 0 0 0 0 0 0 0 0 0 0 0 0 0 0 0 0
0 0 0 0 0 0 0 0 0 0 0 0 0 0 0 0 0 0 0 0 0 0 0 0 0 0 0 0 0 0 0 0 0 0 0 0 0 0 0 0 0 0 0
0 0 0 0 0 0 0 0 0 0 0 0 0 0 0 0 0 0 0 0 0 0 0 0 0 0 0 0 0 0 0 0 0 0 0 0 0 0 0 0 0 0 0
Wind_Speed
8 8 7 7 9 8 9 9 10 11 11 10 9 10 9 9 8 6 4 7 7 8 8 8 8 8 7 7 6 6 5 4 4 3 3 3 2 1 1 1 2 3 3
8 8 8 8 8 8 8 9 10 9 9 8 9 10 9 9 8 8 6 7 8 8 8 8 8 8 8 7 7 6 6 5 4 4 4 3 3 2 1 1 2 3 4
9 8 8 8 8 8 9 9 10 9 8 8 10 10 8 9 8 8 7 6 7 9 9 9 9 8 8 8 8 7 7 6 5 5 5 5 4 3 2 2 2 2 3
10 8 7 7 8 7 7 8 8 8 9 9 9 8 8 7 10 9 8 7 7 6 9 9 9 9 9 9 9 9 8 7 6 6 6 5 5 4 4 2 2 2 3
10 9 8 8 9 7 7 8 8 8 9 9 8 8 8 8 9 8 10 9 8 8 7 8 9 8 8 10 10 10 9 8 8 7 7 6 6 5 5 4 3 3 3
10 9 8 9 9 8 8 9 10 9 8 8 7 7 8 8 8 8 10 9 8 9 9 8 8 7 9 9 11 11 10 10 9 8 8 7 6 6 6 5 4 3 2
8 9 8 9 9 9 10 11 9 10 9 7 6 7 7 9 9 8 8 8 9 9 9 9 8 7 6 10 10 11 11 11 10 9 8 8 7 6 6 5 4 3 2
8 7 9 8 9 8 10 11 10 8 7 8 7 6 6 8 9 9 8 8 9 8 9 10 9 9 7 6 7 10 11 11 11 10 10 9 8 7 6 5 4 3 2
8 8 9 8 8 8 8 10 11 12 9 9 9 7 6 8 6 7 10 9 9 8 9 9 10 10 10 7 7 10 10 10 11 11 11 10 9 8 7 6 5 4 3
7 7 8 9 8 8 9 9 10 9 9 9 8 9 7 4 5 6 7 8 10 10 10 8 9 10 10 8 7 8 10 11 13 13 12 11 10 9 8 6 5 4 4
5 5 6 6 7 7 8 9 9 9 8 8 8 7 8 6 7 5 6 7 7 8 9 10 8 8 9 9 8 10 12 13 15 14 13 12 11 9 8 7 6 4 4
3 5 6 6 6 6 7 7 8 10 9 9 7 7 7 7 7 7 7 6 7 7 8 7 8 8 8 8 9 10 12 14 15 15 14 13 11 9 9 8 7 6 4
3 4 4 5 5 6 6 7 7 8 10 10 9 8 7 9 6 7 7 6 6 5 6 7 8 8 7 8 8 12 12 13 14 15 15 13 11 9 9 8 7 6 5
4 4 5 5 5 5 5 6 6 8 8 9 11 11 8 8 7 8 7 6 6 5 7 8 7 9 8 8 9 13 11 14 14 15 14 13 10 10 9 9 8 6 5
4 5 4 4 4 4 4 5 5 7 7 8 9 10 9 8 8 8 7 8 9 8 9 9 6 9 8 8 9 10 10 13 15 14 13 12 10 10 9 9 8 7 6
5 5 4 4 4 4 4 4 4 5 7 7 7 9 9 8 8 8 8 8 9 10 10 7 7 7 9 7 10 10 10 12 14 15 14 13 12 12 11 10 9 8 7
6 5 5 5 5 5 4 4 5 5 7 7 7 9 10 9 8 7 7 7 9 8 10 6 4 6 10 10 9 9 9 9 9 15 15 15 14 13 12 11 10 9 8
6 6 6 5 5 5 5 5 6 6 7 8 8 8 9 7 10 8 7 9 8 8 8 8 5 6 8 10 10 10 8 7 8 13 16 15 15 15 14 13 11 10 9
7 7 6 6 6 6 6 6 6 7 7 8 8 9 9 9 10 7 8 8 7 7 7 6 5 5 4 6 8 7 8 7 6 9 14 15 16 16 15 14 13 11 10
7 7 7 7 7 7 7 7 6 7 7 7 8 8 9 8 9 9 8 8 7 7 7 6 5 4 4 6 7 7 7 7 7 6 10 11 14 16 16 15 13 11 10
8 8 8 7 8 7 7 9 8 8 8 8 7 8 8 8 9 9 7 7 7 7 7 7 6 5 6 6 9 7 8 6 6 6 7 7 8 8 11 13 13 12 10
8 8 8 8 8 7 11 13 11 8 8 8 8 8 8 8 10 11 12 11 11 10 10 9 8 9 10 9 8 8 7 6 6 7 7 7 7 8 7 7 12 13 12
9 9 9 9 9 10 13 14 13 10 9 8 8 8 7 7 9 9 11 13 13 14 14 11 11 11 11 10 10 11 10 9 7 8 8 7 7 7 6 7 13 14 13
8 8 9 9 9 10 14 15 15 10 9 8 8 8 9 9 8 8 8 9 10 11 12 11 12 11 10 10 12 12 10 6 2 4 7 6 6 5 5 6 13 15 14
8 8 9 10 10 11 14 15 14 9 8 9 9 9 9 9 11 11 9 9 9 8 9 11 12 11 11 12 11 7 8 8 4 4 5 4 5 4 4 5 8 14 14
8 8 9 9 10 10 13 15 15 8 8 9 8 9 10 10 12 12 9 9 9 8 7 6 7 7 8 11 15 12 11 9 6 5 7 6 5 5 4 3 4 6 8
Wind_Direction
213 212 208 204 203 199 196 199 204 201 202 204 207 209 208 211 214 209 185 185 217 227 226 221 215 214 214 217 218 218 216 215 212 211 201 206 207 225 282 330 339 341 339
213 210 211 209 209 205 201 202 204 203 204 204 209 212 214 214 220 216 214 189 205 221 226 226 223 218 219 221 223 220 214 215 213 205 208 212 207 215 243 289 310 320 329
216 211 210 209 209 208 206 206 206 206 206 205 211 214 217 220 218 219 216 215 201 205 219 224 225 225 226 227 225 220 212 208 203 206 210 214 216 219 236 260 285 314 330
221 217 213 210 207 205 205 206 205 203 205 207 210 209 214 217 225 223 218 215 215 207 204 213 223 228 231 229 226 219 213 206 205 213 217 217 216 218 227 240 267 293 310
223 220 218 212 205 203 204 205 206 206 208 210 214 212 214 216 221 221 223 220 218 217 216 193 208 223 228 227 226 220 214 209 209 211 212 213 217 219 221 235 253 271 292
227 223 221 217 206 204 206 207 207 206 212 208 211 216 219 220 221 222 225 222 219 218 221 215 206 208 218 225 224 219 217 217 212 211 214 216 219 220 225 234 244 247 264
231 226 224 218 212 209 210 208 207 208 210 202 201 213 222 225 226 221 221 222 219 217 218 218 218 214 206 209 216 217 219 220 214 213 213 214 217 219 223 231 230 228 255
230 226 224 221 216 213 213 211 207 208 204 196 199 199 214 216 221 224 221 219 220 213 218 220 218 217 217 209 200 209 221 219 217 216 212 212 218 220 222 224 214 225 255
236 231 231 226 220 216 214 210 208 209 206 203 206 204 207 219 209 208 216 216 215 215 216 216 219 218 218 217 206 201 208 213 218 219 215 214 215 215 218 218 222 234 250
247 242 238 232 226 222 219 214 209 211 212 210 211 222 233 231 210 208 206 215 217 219 219 214 216 216 216 215 212 205 198 208 215 219 220 218 214 215 217 215 224 234 243
255 254 249 243 235 230 227 222 216 213 213 216 213 212 222 229 229 227 219 204 209 218 219 217 213 214 213 213 211 205 200 209 215 218 221 219 216 214 214 215 220 226 232
270 269 261 251 245 239 233 228 223 221 219 219 219 218 215 213 214 221 230 218 216 211 211 214 215 214 211 211 212 201 202 210 216 219 221 217 212 211 208 212 216 219 225
288 289 279 263 254 251 243 235 228 225 223 222 221 223 226 230 224 222 225 227 226 216 211 217 215 214 209 210 207 199 206 210 213 216 217 215 208 206 205 208 213 215 220
287 291 285 278 270 261 254 246 237 232 229 228 228 227 228 228 227 226 221 218 224 220 216 220 211 212 209 208 205 194 204 206 208 211 215 211 206 201 202 204 206 208 218
301 297 289 286 287 284 273 258 250 245 238 234 234 233 233 231 228 230 227 222 223 228 227 216 208 210 206 205 193 199 206 200 203 205 203 201 194 194 196 199 201 205 212
319 309 300 295 293 286 284 273 267 263 254 245 241 240 238 237 235 231 230 230 230 235 239 216 210 200 199 203 197 202 205 193 200 201 197 192 189 192 195 198 201 204 211
342 334 321 308 301 297 292 283 273 268 262 258 252 246 243 241 238 234 231 232 232 231 240 234 212 198 195 202 198 203 202 199 200 200 199 195 192 194 196 197 200 202 209
343 341 336 328 316 306 298 289 284 277 269 264 261 257 252 247 245 239 234 232 233 231 234 235 217 199 204 203 200 200 200 203 202 196 199 198 197 198 197 197 199 202 208
343 341 341 336 331 322 310 301 293 283 275 272 266 258 257 251 247 245 244 241 235 232 232 230 224 209 206 198 198 198 200 201 202 197 200 202 202 201 200 199 199 203 207
348 345 342 337 333 330 326 321 309 296 285 280 277 268 259 254 253 251 244 243 241 235 229 227 223 207 199 192 193 194 199 201 200 195 202 201 202 203 202 200 200 201 204
349 343 340 338 336 333 336 332 322 311 302 293 287 281 271 265 264 258 253 248 242 238 233 228 222 210 203 191 201 196 205 198 200 193 194 195 195 198 197 200 197 196 201
346 344 342 337 334 332 336 333 325 312 307 299 293 290 283 266 262 259 254 248 243 238 233 229 226 221 216 211 205 199 194 189 203 190 189 195 189 197 194 193 192 195 201
341 339 336 334 330 330 333 332 328 316 308 303 299 296 293 287 277 268 259 250 244 241 236 233 232 227 220 211 202 203 202 200 205 175 178 193 188 199 188 191 190 195 200
334 331 328 328 326 329 333 330 326 314 305 301 298 294 292 293 289 283 276 265 257 247 240 238 240 236 227 213 202 204 204 187 126 160 171 182 179 188 177 187 193 196 199
328 326 324 325 324 324 329 330 326 311 304 302 298 295 294 292 295 292 279 271 270 268 260 256 256 250 235 216 199 185 179 178 183 184 182 168 159 157 168 188 192 196 199
319 318 317 318 318 320 326 329 329 317 312 309 303 297 292 296 300 296 284 272 266 270 273 274 262 249 234 212 198 196 188 187 175 179 180 165 155 150 163 180 183 188 195